Location: BGSU Observatory
(41.3799°N, 83.6397°W)
Time: 16:42:55
(UTC-04:00)

Amateur Radio Satellites - All Passes

Search period start: 28 August 2016 16:12
Search period end: 29 August 2016 16:12
Location: BGSU Observatory, 41.3799°N, 83.6397°W

Satellite Date Start Highest point End Downlink Frequencies (MHz)
Time Altitude Azimuth
ITUPSAT 1 28 Aug 16:26:30 16:31:15 69° 286° (WNW) 16:35:59 437.325
ISS 28 Aug 16:30:53 16:33:54 33° 223° (SW) 16:36:53 145.825
SWISSCUBE 28 Aug 16:59:36 17:03:42 29° 292° (WNW) 17:07:47 437.505
KKS-1 28 Aug 17:09:11 17:13:22 38° 98° (E) 17:17:31 437.445
BEESAT 28 Aug 17:16:57 17:20:39 23° 295° (WNW) 17:24:19 436.000
MOZHAYETS 4 28 Aug 17:21:16 17:25:51 72° 102° (ESE) 17:30:25
ITAMSAT 1 28 Aug 17:21:30 17:23:17 12° 271° (W) 17:25:04 435.822/435.867
HORYU 2 28 Aug 17:29:12 17:33:33 54° 73° (ENE) 17:37:55 437.375
Cosmos 2491 28 Aug 17:29:46 17:35:09 18° 77° (ENE) 17:40:30 435.465 / 435.565
NOAA 18 28 Aug 17:35:34 17:38:30 15° 58° (ENE) 17:41:26 137.9125
STARS 28 Aug 17:42:30 17:46:43 42° 99° (E) 17:50:52 437.465
YUBILEINY 28 Aug 17:44:50 17:53:16 48° 75° (ENE) 18:01:34 435.215
GOMX 1 28 Aug 17:45:22 17:48:35 17° 61° (ENE) 17:51:54 467.674
AO-7 28 Aug 17:49:09 17:55:54 27° 265° (W) 18:02:42 29.400- 29.500
BRITE-PL 28 Aug 18:12:07 18:16:53 58° 73° (ENE) 18:22:05 437.365/2234.400
Cubesat XI-IV 28 Aug 18:13:53 18:18:32 32° 67° (ENE) 18:23:13 437.490
NOAA 15 28 Aug 18:23:03 18:28:04 49° 70° (ENE) 18:33:09 137.62
CUTE-I 28 Aug 18:25:05 18:30:02 40° 69° (ENE) 18:34:58 437.470
CUBESAT XI-V 28 Aug 18:43:48 18:48:30 68° 101° (ESE) 18:53:12 437.345
BEESAT 2 28 Aug 18:44:15 18:47:30 23° 47° (NE) 18:50:44 435.950
KKS-1 28 Aug 18:46:22 18:49:40 21° 295° (WNW) 18:52:57 437.445
HO-68 28 Aug 18:55:25 19:00:03 19° 54° (NE) 19:04:41 435.675
LilacSat-2 28 Aug 18:55:53 18:59:43 73° 75° (ENE) 19:03:32 437.200
BEESAT 3 28 Aug 18:59:57 19:03:53 58° 55° (NE) 19:07:47 437.485
MOZHAYETS 4 28 Aug 19:00:29 19:02:25 13° 298° (WNW) 19:04:20
HORYU 2 28 Aug 19:08:04 19:10:25 14° 268° (W) 19:12:47 437.375
NOAA 18 28 Aug 19:12:52 19:18:25 84° 256° (WSW) 19:23:59 137.9125
Cosmos 2504 28 Aug 19:17:11 19:24:23 63° 79° (E) 19:31:28 435.465 / 435.565
STARS 28 Aug 19:19:43 19:22:44 18° 295° (WNW) 19:25:44 437.465
GOMX 1 28 Aug 19:20:56 19:25:59 68° 259° (W) 19:31:23 467.674
Cosmos 2491 28 Aug 19:21:57 19:30:41 89° 278° (W) 19:39:31 435.465 / 435.565
DOVE 4 28 Aug 19:22:25 19:27:31 61° 74° (ENE) 19:32:46 437.250
YUBILEINY 28 Aug 19:42:01 19:49:48 37° 275° (W) 19:57:31 435.215
BRITE-PL 28 Aug 19:52:46 19:55:51 16° 272° (W) 19:59:05 437.365/2234.400
Cubesat XI-IV 28 Aug 19:53:44 19:58:32 33° 263° (W) 20:03:21 437.490
CINEMA 3 28 Aug 19:56:14 20:00:52 39° 70° (ENE) 20:05:27 145.822/145.860
SEEDS 28 Aug 20:01:10 20:04:12 20° 67° (ENE) 20:07:14 437.485
AIST 1 28 Aug 20:02:37 20:04:50 14° 69° (ENE) 20:07:03
NOAA 15 28 Aug 20:04:12 20:08:05 21° 267° (W) 20:12:02 137.62
CUTE-I 28 Aug 20:05:45 20:10:10 26° 265° (W) 20:14:36 437.470
PCSat 28 Aug 20:09:17 20:12:46 17° 42° (NE) 20:16:15 145.827
CUBEBUG 2 28 Aug 20:09:19 20:11:59 15° 64° (ENE) 20:14:37 437.445
BEESAT 2 28 Aug 20:21:43 20:25:24 35° 244° (WSW) 20:29:03 435.950
CUBESAT XI-V 28 Aug 20:22:57 20:25:19 14° 298° (WNW) 20:27:41 437.345
CANX-2 28 Aug 20:23:36 20:27:43 58° 74° (ENE) 20:31:52 2200.000
STRAND 1 28 Aug 20:28:43 20:33:33 41° 98° (E) 20:38:21 437.568
AAUSAT CUBESAT 2 28 Aug 20:29:03 20:32:12 22° 68° (ENE) 20:35:23 437.432
CUTE 1.7 + AOD 2 28 Aug 20:29:29 20:33:36 58° 75° (ENE) 20:37:45 437.475
COMPASS 1 28 Aug 20:37:32 20:41:15 34° 71° (ENE) 20:45:00 437.405
BEESAT 3 28 Aug 20:39:26 20:41:03 12° 251° (WSW) 20:42:39 437.485
HO-68 28 Aug 20:39:35 20:46:48 89° 73° (ENE) 20:54:03 435.675
NOAA 18 28 Aug 20:59:02 20:59:50 10° 272° (W) 21:00:37 137.9125
DOVE 4 28 Aug 21:02:16 21:05:36 17° 270° (W) 21:08:59 437.250
AIST 2 28 Aug 21:04:26 21:08:06 28° 48° (NE) 21:11:45 435.215
PRISM 28 Aug 21:11:39 21:12:35 11° 90° (E) 21:13:31 437.425
Cosmos 2504 28 Aug 21:11:51 21:17:02 22° 278° (W) 21:22:13 435.465 / 435.565
Oscar 11 28 Aug 21:20:23 21:24:14 33° 70° (ENE) 21:28:06 145.826/435.025
Cosmos 2491 28 Aug 21:23:05 21:28:51 19° 299° (WNW) 21:34:41 435.465 / 435.565
FUNcube-1 28 Aug 21:29:07 21:33:14 39° 72° (ENE) 21:37:17 145.935
CINEMA 3 28 Aug 21:33:58 21:38:03 25° 266° (W) 21:42:07 145.822/145.860
SEEDS 28 Aug 21:35:53 21:39:40 34° 263° (W) 21:43:29 437.485
AIST 1 28 Aug 21:38:30 21:42:48 54° 266° (W) 21:47:04
UWE-3 28 Aug 21:38:46 21:43:21 84° 77° (ENE) 21:47:50 435.000/436.395/437.385
CUBEBUG 2 28 Aug 21:43:31 21:48:09 59° 260° (W) 21:52:41 437.445
ZACube-1 28 Aug 21:50:53 21:55:19 73° 76° (ENE) 21:59:42 437.345
PCSat 28 Aug 21:51:28 21:56:55 89° 243° (WSW) 22:02:20 145.827
DELFI C3 28 Aug 21:57:51 22:01:23 33° 71° (ENE) 22:04:56 145.870
GONETS M04 28 Aug 22:01:56 22:06:46 15° 58° (ENE) 22:11:34
CANX-2 28 Aug 22:02:29 22:03:57 12° 270° (W) 22:05:24 2200.000
AAUSAT CUBESAT 2 28 Aug 22:03:54 22:07:31 30° 264° (W) 22:11:10 437.432
CUTE 1.7 + AOD 2 28 Aug 22:08:24 22:09:49 11° 270° (W) 22:11:14 437.475
STRAND 1 28 Aug 22:08:25 22:12:29 24° 295° (WNW) 22:16:32 437.568
COMPASS 1 28 Aug 22:13:57 22:16:53 19° 267° (W) 22:19:52 437.405
Cosmos 2499 28 Aug 22:21:34 22:23:21 11° 59° (ENE) 22:25:08 435.465 / 435.565
AUBIESAT-1 28 Aug 22:25:18 22:28:03 16° 58° (ENE) 22:30:49 437.475
HUMSAT D 28 Aug 22:27:38 22:31:27 36° 71° (ENE) 22:35:14 437.325/437.525
M-CUBED/EXP-1 PRIME 28 Aug 22:31:05 22:34:38 22° 60° (ENE) 22:38:11 437.505
HO-68 28 Aug 22:31:15 22:35:23 16° 271° (W) 22:39:31 435.675
AIST 2 28 Aug 22:42:53 22:46:33 29° 246° (WSW) 22:50:11 435.215
PRISM 28 Aug 22:44:08 22:48:17 63° 286° (WNW) 22:52:25 437.425
ANTELSAT 28 Aug 22:56:21 22:59:09 17° 92° (E) 23:01:54 437.575/2403.000
Oscar 11 28 Aug 22:57:08 23:00:25 21° 266° (W) 23:03:44 145.826/435.025
FUNcube-1 28 Aug 23:06:26 23:09:35 19° 267° (W) 23:12:43 145.935
CUSAT 1 28 Aug 23:17:58 23:18:31 10° 82° (E) 23:19:06 437.405
TIGRISAT 28 Aug 23:26:05 23:29:59 33° 97° (E) 23:33:50 435.000
ESTCUBE 1 28 Aug 23:27:24 23:31:16 29° 68° (ENE) 23:35:10 437.505/2401.250
AISAT 28 Aug 23:31:27 23:34:37 19° 65° (ENE) 23:37:46 437.250
ZACube-1 28 Aug 23:31:50 23:32:03 10° 271° (W) 23:32:15 437.345
DELFI C3 28 Aug 23:33:38 23:36:19 18° 267° (W) 23:39:01 145.870
UKube-1 28 Aug 23:36:17 23:37:09 11° 60° (ENE) 23:38:01 .
PCSat 28 Aug 23:37:50 23:39:27 11° 258° (WSW) 23:41:05 145.827
UNISAT 6 28 Aug 23:54:52 23:59:10 78° 102° (ESE) 00:03:25 437.425
GONETS M04 28 Aug 23:56:24 00:05:18 74° 81° (E) 00:14:08
AUBIESAT-1 28 Aug 23:57:23 00:01:59 65° 254° (WSW) 00:06:36 437.475
50 SAT 29 Aug 00:01:44 00:04:54 30° 71° (ENE) 00:08:05 437.505
M-CUBED/EXP-1 PRIME 29 Aug 00:04:19 00:08:48 46° 256° (WSW) 00:13:21 437.505
HUMSAT D 29 Aug 00:04:19 00:07:11 18° 267° (W) 00:10:02 437.325/437.525
Cosmos 2499 29 Aug 00:10:50 00:17:54 71° 80° (E) 00:25:02 435.465 / 435.565
QB50P1 29 Aug 00:13:54 00:16:40 17° 93° (E) 00:19:24 145.935-145.965
O/OREOS (USA 219) 29 Aug 00:14:37 00:19:10 61° 65° (ENE) 00:23:43 437.305
CUBEBUG 1 29 Aug 00:15:59 00:20:19 63° 74° (ENE) 00:24:43 437.445
VELOX 1 29 Aug 00:17:16 00:21:34 53° 73° (ENE) 00:25:56 145.980
JAS-2 29 Aug 00:19:05 00:23:40 18° 90° (E) 00:28:29 435.910
SO-50 29 Aug 00:22:44 00:27:36 81° 120° (ESE) 00:32:26 436.795
POPSAT HIP 1 29 Aug 00:23:39 00:26:53 21° 94° (E) 00:30:06 437.405
DANDE 29 Aug 00:25:10 00:26:53 16° 90° (E) 00:28:40 436.750
SPROUT 29 Aug 00:28:08 00:32:02 34° 70° (ENE) 00:35:56 437.525
DX 1 29 Aug 00:30:19 00:34:32 50° 72° (ENE) 00:38:48 434.975-435.025
ANTELSAT 29 Aug 00:32:02 00:36:03 40° 289° (WNW) 00:40:02 437.575/2403.000
TISAT 1 29 Aug 00:45:05 00:46:45 12° 62° (ENE) 00:48:26 437.305
DUCHIFAT 1 29 Aug 00:49:20 00:53:13 36° 98° (E) 00:57:05 145.980
QB50P2 29 Aug 00:53:43 00:57:51 50° 100° (E) 01:01:56 145.880/145.840
POLYITAN 1 29 Aug 00:56:14 01:00:21 51° 100° (E) 01:04:26 437.675
CUSAT 1 29 Aug 00:57:16 00:59:55 28° 289° (WNW) 01:03:09 437.405
RS-15 29 Aug 00:58:06 01:08:00 36° 105° (ESE) 01:18:18 29.354- 29.394
TIGRISAT 29 Aug 01:03:15 01:06:28 21° 294° (WNW) 01:09:39 435.000
NANOSAT C BR1 29 Aug 01:03:36 01:07:46 58° 100° (E) 01:11:53 145.865
ESTCUBE 1 29 Aug 01:04:17 01:08:03 26° 265° (W) 01:11:50 437.505/2401.250
AISAT 29 Aug 01:06:33 01:10:46 42° 261° (W) 01:15:01 437.250
UKube-1 29 Aug 01:08:13 01:12:31 79° 255° (WSW) 01:16:53 .
PHONESAT 2.4 29 Aug 01:13:19 01:14:03 11° 148° (SSE) 01:14:47 2401.200-2431.200
UNISAT 6 29 Aug 01:34:50 01:35:14 10° 299° (WNW) 01:35:38 437.425
50 SAT 29 Aug 01:36:21 01:38:33 16° 267° (W) 01:40:46 437.505
BUGSAT 1 29 Aug 01:39:01 01:43:07 57° 101° (E) 01:47:06 437.445
QB50P1 29 Aug 01:48:39 01:52:36 40° 289° (WNW) 01:56:31 145.935-145.965
GONETS M04 29 Aug 01:54:41 02:01:09 23° 280° (W) 02:07:37
CUBEBUG 1 29 Aug 01:55:23 01:57:01 12° 270° (W) 01:58:40 437.445
O/OREOS (USA 219) 29 Aug 01:55:51 01:58:01 13° 262° (W) 02:00:10 437.305
VELOX 1 29 Aug 01:55:58 01:58:21 14° 269° (W) 02:00:45 145.980
ITUPSAT 1 29 Aug 01:57:39 02:00:30 16° 62° (ENE) 02:03:22 437.325
POPSAT HIP 1 29 Aug 01:58:58 02:02:43 31° 290° (WNW) 02:06:26 437.405
JAS-2 29 Aug 02:02:18 02:09:13 85° 284° (WNW) 02:16:50 435.910
SPROUT 29 Aug 02:04:47 02:08:02 21° 266° (W) 02:11:18 437.525
SO-50 29 Aug 02:05:28 02:08:40 17° 320° (NW) 02:11:51 436.795
Cosmos 2499 29 Aug 02:05:36 02:10:12 19° 279° (W) 02:14:49 435.465 / 435.565
DX 1 29 Aug 02:08:34 02:11:01 15° 268° (W) 02:13:28 434.975-435.025
DANDE 29 Aug 02:09:04 02:09:39 10° 293° (WNW) 02:10:15 436.750
TISAT 1 29 Aug 02:17:37 02:21:51 65° 259° (W) 02:26:05 437.305
Gurwin Techsat 1B 29 Aug 02:17:47 02:19:54 12° 89° (E) 02:22:01 435.225
DUCHIFAT 1 29 Aug 02:25:41 02:28:39 19° 294° (WNW) 02:31:36 145.980
SWISSCUBE 29 Aug 02:28:15 02:32:32 35° 69° (ENE) 02:36:50 437.505
QB50P2 29 Aug 02:30:53 02:33:13 15° 296° (WNW) 02:35:33 145.880/145.840
POLYITAN 1 29 Aug 02:33:27 02:35:43 14° 296° (WNW) 02:38:00 437.675
Oscar 19 29 Aug 02:33:46 02:38:39 39° 98° (E) 02:43:28 437.125/150
NANOSAT C BR1 29 Aug 02:41:05 02:42:59 13° 297° (WNW) 02:44:54 145.865
BEESAT 29 Aug 02:44:55 02:49:27 46° 71° (ENE) 02:54:00 436.000
PHONESAT 2.4 29 Aug 02:47:03 02:49:54 40° 163° (SSE) 02:52:44 2401.200-2431.200
RS-15 29 Aug 03:08:00 03:19:33 70° 307° (NW) 03:31:46 29.354- 29.394
BUGSAT 1 29 Aug 03:16:09 03:17:58 13° 297° (WNW) 03:19:48 437.445
ITUPSAT 1 29 Aug 03:33:10 03:37:51 59° 259° (W) 03:42:34 437.325
JAS-2 29 Aug 03:49:15 03:53:27 17° 301° (WNW) 03:57:53 435.910
ITAMSAT 1 29 Aug 03:51:15 03:55:41 28° 96° (E) 04:00:06 435.822/435.867
Gurwin Techsat 1B 29 Aug 03:55:07 04:00:28 81° 285° (WNW) 04:05:46 435.225
AO-7 29 Aug 03:57:19 04:03:07 20° 92° (E) 04:08:53 29.400- 29.500
SWISSCUBE 29 Aug 04:06:30 04:10:22 24° 265° (W) 04:14:15 437.505
KKS-1 29 Aug 04:07:07 04:11:13 36° 70° (ENE) 04:15:20 437.445
Oscar 19 29 Aug 04:13:28 04:17:46 27° 295° (WNW) 04:22:02 437.125/150
MOZHAYETS 4 29 Aug 04:22:54 04:27:26 67° 74° (ENE) 04:31:58
PHONESAT 2.4 29 Aug 04:23:07 04:26:07 76° 179° (S) 04:29:06 2401.200-2431.200
BEESAT 29 Aug 04:24:09 04:27:28 19° 267° (W) 04:30:46 436.000
STARS 29 Aug 04:38:59 04:43:05 39° 71° (ENE) 04:47:13 437.465
RS-15 29 Aug 05:24:57 05:34:50 29° 337° (NNW) 05:45:04 29.354- 29.394
ITAMSAT 1 29 Aug 05:30:29 05:35:10 35° 292° (WNW) 05:39:51 435.822/435.867
Cosmos 2491 29 Aug 05:32:23 05:40:51 47° 74° (ENE) 05:49:15 435.465 / 435.565
Gurwin Techsat 1B 29 Aug 05:37:58 05:39:32 11° 303° (WNW) 05:41:05 435.225
KKS-1 29 Aug 05:44:27 05:47:52 21° 266° (W) 05:51:18 437.445
CUBESAT XI-V 29 Aug 05:46:54 05:51:27 65° 74° (ENE) 05:56:03 437.345
AO-7 29 Aug 05:48:25 05:56:45 83° 290° (WNW) 06:05:02 29.400- 29.500
PHONESAT 2.4 29 Aug 05:59:28 06:02:21 45° 196° (SSW) 06:05:13 2401.200-2431.200
AO-85 29 Aug 06:00:56 06:06:15 77° 121° (ESE) 06:11:18 145.980
MOZHAYETS 4 29 Aug 06:03:27 06:05:02 12° 271° (W) 06:06:37
STARS 29 Aug 06:16:21 06:19:34 20° 266° (W) 06:22:48 437.465
BRITE-PL 29 Aug 06:17:19 06:21:44 23° 91° (E) 06:26:02 437.365/2234.400
Cubesat XI-IV 29 Aug 06:33:02 06:34:45 11° 89° (E) 06:36:28 437.490
NOAA 15 29 Aug 06:39:02 06:42:37 18° 92° (E) 06:46:11 137.62
CUTE-I 29 Aug 06:43:15 06:46:17 15° 91° (E) 06:49:18 437.470
YUBILEINY 29 Aug 06:45:23 06:53:53 55° 90° (E) 07:02:24 435.215
HORYU 2 29 Aug 06:56:17 07:00:43 75° 285° (WNW) 07:05:06 437.375
SO-50 29 Aug 07:15:36 07:17:38 13° 35° (NE) 07:19:38 436.795
DOVE 4 29 Aug 07:23:02 07:26:13 17° 89° (E) 07:29:18 437.250
GOMX 1 29 Aug 07:23:06 07:28:10 40° 96° (E) 07:32:58 467.674
CUBESAT XI-V 29 Aug 07:27:22 07:29:16 12° 271° (W) 07:31:12 437.345
Cosmos 2491 29 Aug 07:29:33 07:37:29 39° 274° (W) 07:45:24 435.465 / 435.565
NOAA 18 29 Aug 07:35:06 07:40:15 40° 99° (E) 07:45:21 137.9125
PHONESAT 2.4 29 Aug 07:36:52 07:38:14 12° 211° (SSW) 07:39:36 2401.200-2431.200
AO-7 29 Aug 07:42:48 07:48:20 20° 310° (NW) 07:53:50 29.400- 29.500
RS-15 29 Aug 07:43:30 07:52:59 25° 13° (NNE) 08:02:32 29.354- 29.394
AO-85 29 Aug 07:43:34 07:47:14 19° 318° (NW) 07:50:45 145.980
STRAND 1 29 Aug 07:44:31 07:49:32 60° 72° (ENE) 07:54:33 437.568
Cosmos 2504 29 Aug 07:54:26 08:02:35 55° 91° (E) 08:10:11 435.465 / 435.565
BRITE-PL 29 Aug 07:54:55 08:00:27 52° 288° (WNW) 08:05:49 437.365/2234.400
LilacSat-2 29 Aug 08:03:20 08:07:05 73° 285° (WNW) 08:10:50 437.200
HO-68 29 Aug 08:09:13 08:13:27 16° 89° (E) 08:17:39 435.675
Cubesat XI-IV 29 Aug 08:10:07 08:15:28 85° 285° (WNW) 08:20:47 437.490
NOAA 15 29 Aug 08:17:32 08:22:45 57° 288° (WNW) 08:27:56 137.62
CUTE-I 29 Aug 08:21:31 08:26:48 67° 287° (WNW) 08:32:03 437.470
YUBILEINY 29 Aug 08:43:17 08:51:02 34° 290° (WNW) 08:58:51 435.215
SO-50 29 Aug 08:54:22 08:58:59 72° 56° (NE) 09:03:26 436.795
DOVE 4 29 Aug 08:59:23 09:04:18 53° 287° (WNW) 09:08:54 437.250
GOMX 1 29 Aug 09:01:32 09:05:59 27° 294° (WNW) 09:10:17 467.674
ISS 29 Aug 09:10:08 09:13:24 69° 142° (SE) 09:16:40 145.825
NOAA 18 29 Aug 09:16:08 09:20:42 28° 296° (WNW) 09:25:15 137.9125
SEEDS 29 Aug 09:19:15 09:23:10 36° 97° (E) 09:27:04 437.485
STRAND 1 29 Aug 09:26:01 09:29:06 16° 269° (W) 09:32:11 437.568
CINEMA 3 29 Aug 09:27:56 09:32:28 88° 109° (ESE) 09:36:46 145.822/145.860
UWE-3 29 Aug 09:29:47 09:32:16 15° 92° (E) 09:34:45 435.000/436.395/437.385
PRISM 29 Aug 09:33:10 09:37:15 90° 240° (WSW) 09:41:24 437.425
CUBEBUG 2 29 Aug 09:34:54 09:38:29 27° 95° (E) 09:42:01 437.445
ZACube-1 29 Aug 09:41:00 09:42:52 13° 90° (E) 09:44:45 437.345
CANX-2 29 Aug 09:44:04 09:48:17 69° 285° (WNW) 09:52:31 2200.000
CUSAT 1 29 Aug 09:45:18 09:50:28 23° 70° (ENE) 09:56:14 437.405
AAUSAT CUBESAT 2 29 Aug 09:45:28 09:49:23 38° 98° (E) 09:53:18 437.432
Cosmos 2504 29 Aug 09:49:04 09:56:14 31° 289° (WNW) 10:03:03 435.465 / 435.565
CUTE 1.7 + AOD 2 29 Aug 09:49:50 09:54:03 69° 285° (WNW) 09:58:16 437.475
Cubesat XI-IV 29 Aug 09:52:47 09:54:43 12° 302° (WNW) 09:56:37 437.490
HO-68 29 Aug 09:54:48 10:02:01 87° 287° (WNW) 10:09:10 435.675
COMPASS 1 29 Aug 09:55:05 09:59:16 65° 102° (ESE) 10:03:24 437.405
ANTELSAT 29 Aug 09:55:21 09:58:21 17° 65° (ENE) 10:01:18 437.575/2403.000
RS-15 29 Aug 09:57:31 10:09:30 51° 44° (NE) 10:21:17 29.354- 29.394
AIST 1 29 Aug 10:07:16 10:11:36 88° 106° (ESE) 10:16:02
BEESAT 2 29 Aug 10:13:17 10:16:53 36° 116° (ESE) 10:20:33 435.950
TIGRISAT 29 Aug 10:24:32 10:28:35 32° 70° (ENE) 10:32:35 435.000
BEESAT 3 29 Aug 10:27:31 10:31:26 77° 302° (WNW) 10:35:23 437.485
SO-50 29 Aug 10:36:57 10:38:47 12° 253° (WSW) 10:40:37 436.795
Oscar 11 29 Aug 10:42:53 10:47:12 68° 102° (ESE) 10:51:29 145.826/435.025
ISS 29 Aug 10:47:27 10:50:08 22° 340° (NNW) 10:52:49 145.825
FUNcube-1 29 Aug 10:52:49 10:56:59 82° 104° (ESE) 11:01:06 145.935
UNISAT 6 29 Aug 10:53:10 10:57:44 69° 74° (ENE) 11:02:13 437.425
PCSat 29 Aug 10:54:31 10:55:42 11° 101° (ESE) 10:56:54 145.827
SEEDS 29 Aug 10:55:36 10:58:36 19° 293° (WNW) 11:01:37 437.485
DANDE 29 Aug 10:57:51 11:02:48 31° 75° (ENE) 11:08:58 436.750
UWE-3 29 Aug 11:05:01 11:08:58 42° 288° (WNW) 11:12:51 435.000/436.395/437.385
GONETS M04 29 Aug 11:05:27 11:10:16 16° 76° (ENE) 11:15:07
QB50P1 29 Aug 11:07:07 11:09:23 14° 63° (ENE) 11:11:38 145.935-145.965
DELFI C3 29 Aug 11:09:26 11:13:24 55° 100° (E) 11:17:20 145.870
CUBEBUG 2 29 Aug 11:11:35 11:15:01 25° 292° (WNW) 11:18:24 437.445
ZACube-1 29 Aug 11:15:27 11:19:29 50° 287° (WNW) 11:23:28 437.345
POPSAT HIP 1 29 Aug 11:16:39 11:19:29 18° 65° (ENE) 11:22:20 437.405
AAUSAT CUBESAT 2 29 Aug 11:21:45 11:24:35 18° 294° (WNW) 11:27:25 437.432
CUSAT 1 29 Aug 11:26:11 11:32:47 72° 263° (W) 11:40:35 437.405
ANTELSAT 29 Aug 11:30:14 11:34:41 48° 261° (W) 11:39:04 437.575/2403.000
COMPASS 1 29 Aug 11:32:49 11:34:16 12° 297° (WNW) 11:35:42 437.405
DUCHIFAT 1 29 Aug 11:41:15 11:44:53 28° 69° (ENE) 11:48:31 145.980
HO-68 29 Aug 11:44:14 11:48:44 18° 306° (NW) 11:53:14 435.675
HUMSAT D 29 Aug 11:45:54 11:49:59 69° 102° (ESE) 11:54:04 437.325/437.525
QB50P2 29 Aug 11:46:11 11:50:09 38° 71° (ENE) 11:54:07 145.880/145.840
M-CUBED/EXP-1 PRIME 29 Aug 11:46:24 11:47:34 11° 94° (E) 11:48:41 437.505
POLYITAN 1 29 Aug 11:48:41 11:52:40 39° 71° (ENE) 11:56:39 437.675
BEESAT 2 29 Aug 11:51:39 11:54:48 22° 314° (NW) 11:57:59 435.950
NANOSAT C BR1 29 Aug 11:55:30 11:59:31 43° 72° (ENE) 12:03:34 145.865
TIGRISAT 29 Aug 12:01:30 12:05:16 25° 265° (W) 12:08:59 435.000
CUBEBUG 1 29 Aug 12:06:44 12:08:17 12° 90° (E) 12:09:50 437.445
BEESAT 3 29 Aug 12:09:02 12:09:48 10° 322° (NW) 12:10:34 437.485
RS-15 29 Aug 12:10:23 12:22:16 57° 248° (WSW) 12:33:55 29.354- 29.394
JAS-2 29 Aug 12:16:02 12:20:50 38° 67° (ENE) 12:25:59 435.910
Oscar 11 29 Aug 12:21:10 12:22:45 12° 298° (WNW) 12:24:20 145.826/435.025
ISS 29 Aug 12:25:42 12:27:30 14° 0° (N) 12:29:18 145.825
BUGSAT 1 29 Aug 12:28:26 12:32:23 40° 72° (ENE) 12:36:22 437.445
PCSat 29 Aug 12:32:48 12:38:13 85° 117° (ESE) 12:43:40 145.827
UNISAT 6 29 Aug 12:33:19 12:34:51 11° 270° (W) 12:36:22 437.425
AIST 2 29 Aug 12:39:41 12:43:40 54° 119° (ESE) 12:47:42 435.215
DANDE 29 Aug 12:40:12 12:45:33 43° 265° (W) 12:52:18 436.750
QB50P1 29 Aug 12:40:30 12:44:42 55° 260° (W) 12:48:54 145.935-145.965
DELFI C3 29 Aug 12:46:05 12:47:45 12° 296° (WNW) 12:49:27 145.870
Cosmos 2499 29 Aug 12:46:35 12:54:31 59° 92° (E) 13:01:53 435.465 / 435.565
POPSAT HIP 1 29 Aug 12:50:52 12:54:56 42° 261° (W) 12:59:01 437.405
ESTCUBE 1 29 Aug 12:55:39 13:00:10 63° 101° (E) 13:04:40 437.505/2401.250
UKube-1 29 Aug 12:56:20 12:59:09 17° 93° (E) 13:01:57 .
AISAT 29 Aug 12:56:31 13:00:38 35° 98° (E) 13:04:40 437.250
GONETS M04 29 Aug 12:56:53 13:05:39 84° 97° (E) 13:14:31
50 SAT 29 Aug 13:02:52 13:06:17 37° 99° (E) 13:09:42 437.505
AUBIESAT-1 29 Aug 13:11:07 13:15:09 84° 291° (WNW) 13:18:51 437.475
CUSAT 1 29 Aug 13:11:24 13:14:03 12° 277° (W) 13:16:50 437.405
DUCHIFAT 1 29 Aug 13:17:01 13:20:31 25° 265° (W) 13:24:03 145.980
M-CUBED/EXP-1 PRIME 29 Aug 13:18:32 13:22:33 55° 292° (WNW) 13:26:14 437.505
QB50P2 29 Aug 13:23:06 13:26:05 18° 267° (W) 13:29:04 145.880/145.840
HUMSAT D 29 Aug 13:24:15 13:25:03 10° 298° (WNW) 13:25:50 437.325/437.525
POLYITAN 1 29 Aug 13:25:38 13:28:36 18° 267° (W) 13:31:34 437.675
NANOSAT C BR1 29 Aug 13:32:46 13:35:27 16° 268° (W) 13:38:09 145.865
Gurwin Techsat 1B 29 Aug 13:38:07 13:42:05 22° 63° (ENE) 13:46:02 435.225
CUBEBUG 1 29 Aug 13:40:36 13:45:00 64° 286° (WNW) 13:49:21 437.445
VELOX 1 29 Aug 13:43:25 13:47:54 76° 286° (WNW) 13:52:20 145.980
SPROUT 29 Aug 13:49:17 13:53:33 66° 102° (ESE) 13:57:46 437.525
Oscar 19 29 Aug 13:50:30 13:55:32 57° 72° (ENE) 14:00:38 437.125/150
DX 1 29 Aug 13:54:15 13:58:40 86° 282° (WNW) 14:03:02 434.975-435.025
JAS-2 29 Aug 14:01:51 14:06:08 25° 267° (W) 14:10:39 435.910
ISS 29 Aug 14:02:10 14:04:52 23° 20° (NNE) 14:07:34 145.825
TISAT 1 29 Aug 14:02:20 14:05:18 19° 93° (E) 14:08:15 437.305
BUGSAT 1 29 Aug 14:05:03 14:07:55 18° 267° (W) 14:10:48 437.445
PCSat 29 Aug 14:18:45 14:22:19 18° 318° (NW) 14:25:56 145.827
AIST 2 29 Aug 14:19:37 14:22:28 18° 317° (NW) 14:25:20 435.215
O/OREOS (USA 219) 29 Aug 14:26:44 14:31:12 71° 109° (ESE) 14:35:43 437.305
UKube-1 29 Aug 14:31:16 14:35:22 43° 289° (WNW) 14:39:28 .
AO-85 29 Aug 14:33:21 14:37:36 61° 54° (NE) 14:41:32 145.980
AISAT 29 Aug 14:33:25 14:36:52 22° 294° (WNW) 14:40:20 437.250
ESTCUBE 1 29 Aug 14:34:08 14:36:26 14° 298° (WNW) 14:38:45 437.505/2401.250
50 SAT 29 Aug 14:37:32 14:39:33 14° 294° (WNW) 14:41:33 437.505
Cosmos 2499 29 Aug 14:41:25 14:48:00 27° 290° (WNW) 14:54:16 435.465 / 435.565
BEESAT 29 Aug 14:47:17 14:48:44 11° 90° (E) 14:50:11 436.000
AO-7 29 Aug 14:56:12 15:03:16 32° 57° (ENE) 15:10:18 29.400- 29.500
GONETS M04 29 Aug 14:57:21 15:03:37 21° 297° (WNW) 15:09:58
ITAMSAT 1 29 Aug 15:09:07 15:13:59 44° 70° (ENE) 15:18:53 435.822/435.867
Gurwin Techsat 1B 29 Aug 15:16:30 15:21:38 51° 260° (W) 15:26:50 435.225
SPROUT 29 Aug 15:27:18 15:28:56 12° 298° (WNW) 15:30:33 437.525
Oscar 19 29 Aug 15:31:51 15:35:13 17° 269° (W) 15:38:36 437.125/150
ITUPSAT 1 29 Aug 15:33:39 15:38:00 34° 97° (E) 15:42:20 437.325
TISAT 1 29 Aug 15:37:13 15:41:04 36° 290° (WNW) 15:44:53 437.305
ISS 29 Aug 15:38:20 15:41:36 66° 218° (SW) 15:44:51 145.825
